User: anonymous   Login
Location: Lake Superior Provincial Park
(47.3335°N, 84.6162°W)
Time: 09:22:22
(UTC-05:00)
Language:

Cosmos 2333 Rocket - Orbit

View from above orbital plane
View from above orbital plane
View from above satellite
View from above satellite

Ground track
Ground track

The orbit data is extracted from the following two-line orbital elements,

1 24298U 96051B   16341.88104528  .00000143  00000-0  10380-3 0  9990
2 24298  70.8448 107.3727 0013560 118.2337 242.0154 14.12460537 44666
Epoch (UTC): 06 December 2016 21:08:42
Eccentricity: 0.0013560
inclination: 70.8448°
perigee height: 841 km
apogee height: 861 km
right ascension of ascending node: 107.3727°
argument of perigee: 118.2337°
revolutions per day: 14.12460537
mean anomaly at epoch: 242.0154°
orbit number at epoch: 4466

The dashed part of the orbit path shows where the satellite is in the earth's shadow,  

DLR